Tracking 29969 objects as of 6-Dec-2024
HD Live streaming from Space Station
objects crossing your sky now

IRIDIUM 33 DEB

Track IRIDIUM 33 DEB now!
10-day predictions


NORAD ID: 33867
Int'l Code: 1997-051AL
Perigee: 590.4 km
Apogee: 615.3 km
Inclination: 86.4 °
Period: 96.6 minutes
Semi major axis: 6973 km
RCS: 0.1307 m2 (medium)
Launch date: September 14, 1997
Source: United States (US)
Launch site: TYURATAM MISSILE AND SPACE COMPLEX (TTMTR)

Note: This is SATELLITE DEBRIS
Your satellite tracking list
Your tracking list is empty




NASA's NSSDC Master Catalog

Two Line Element Set (TLE):
1 33867U 97051AL  24340.92990553  .00030835  00000-0  31209-2 0  9990
2 33867  86.4040 166.2168 0017824 303.8930  56.0601 14.90708951839023
Source of the keplerian elements: AFSPC